Mountain Home AFB, ID

1:50 AM MST on January 17, 2017 (GMT -0700)
Mountain Home Air Force Base

Weather History for KMUO - November, 2012

Change the Weather History Date:

Friday, November 30, 2012

  Actual Average Record
Temperature  
Mean Temperature 49 °F 33 °F  
Max Temperature 56 °F 41 °F 63 °F (1953)
Min Temperature 41 °F 23 °F -5 °F (1914)
Degree Days  
Heating Degree Days 16 32  
Month to date heating degree days 677 784  
Cooling Degree Days 0 0  
Month to date cooling degree days 0 0  
Moisture  
Dew Point 43 °F    
Average Humidity 77    
Maximum Humidity 100    
Minimum Humidity 51    
Precipitation  
Precipitation 0.05 in 0.04 in 1.02 in (1921)
Month to date precipitation 0.23  
Sea Level Pressure  
Sea Level Pressure 29.78 in    
Wind  
Wind Speed 13 mph (SSE)    
Max Wind Speed 20 mph    
Max Gust Speed 26 mph    
Visibility 10 miles    
Events Rain    
T = Trace of Precipitation, MM = Missing Value Source: NWS Daily Summary

Daily Weather History Graph

Daily Weather History Graph

Search for Another Location

Airport or City:

Trip Planner

Search our weather history database for the weather conditions in past years. The results will help you decide how hot, cold, wet, or windy it might be!

Date:

Astronomy

Nov. 30, 2012 Rise Set
Actual Time 7:54 AM MST 5:09 PM MST
Civil Twilight 7:22 AM MST 5:41 PM MST
Nautical Twilight 6:47 AM MST 6:16 PM MST
Astronomical Twilight 6:13 AM MST 6:51 PM MST
Moon 7:09 PM MST (11/30) 9:29 AM MST (11/30)
Length of Visible Light 10h 18m
Length of Day
9h 15m
Waning Gibbous, 96% of the Moon is Illuminated
Nov 30
Waning Gibbous
Dec 6
Last Quarter
Dec 13
New
Dec 19
First Quarter
Dec 28
Full

Hourly Weather History & Observations

Time (MST) Temp. Windchill Dew Point Humidity Pressure Visibility Wind Dir Wind Speed Gust Speed Precip Events Conditions
12:58 AM 50.4 °F - 37.6 °F 62% 29.81 in 10.0 mi East 18.4 mph - N/A   Overcast
1:58 AM 50.0 °F - 37.2 °F 62% 29.77 in 10.0 mi ESE 17.3 mph - N/A   Scattered Clouds
2:58 AM 50.4 °F - 37.6 °F 62% 29.76 in 10.0 mi East 19.6 mph - N/A   Mostly Cloudy
3:58 AM 51.1 °F - 37.4 °F 60% 29.74 in 10.0 mi East 18.4 mph 26.5 mph N/A   Overcast
4:58 AM 51.1 °F - 38.1 °F 61% 29.72 in 10.0 mi ESE 16.1 mph - N/A   Overcast
5:58 AM 51.1 °F - 38.1 °F 61% 29.73 in 10.0 mi East 15.0 mph - N/A   Overcast
6:38 AM 51.8 °F - 39.2 °F 62% 29.74 in 10.0 mi SE 12.7 mph - N/A   Overcast
6:43 AM 51.8 °F - 39.2 °F 62% 29.74 in 10.0 mi SE 8.1 mph - N/A   Overcast
6:58 AM 51.4 °F - 39.6 °F 64% 29.75 in 10.0 mi ESE 13.8 mph - N/A   Overcast
7:58 AM 51.4 °F - 40.3 °F 66% 29.73 in 10.0 mi East 12.7 mph - N/A   Overcast
8:58 AM 50.9 °F - 46.0 °F 83% 29.74 in 10.0 mi ESE 17.3 mph - N/A   Overcast
9:28 AM 50.0 °F - 48.2 °F 94% 29.74 in 10.0 mi ESE 16.1 mph - N/A   Overcast
9:58 AM 50.0 °F - 50.0 °F 100% 29.75 in 10.0 mi ESE 16.1 mph - N/A   Overcast
10:58 AM 50.9 °F - 50.7 °F 99% 29.75 in 10.0 mi East 12.7 mph - N/A   Overcast
11:50 AM 51.8 °F - 50.0 °F 94% 29.77 in 10.0 mi SSE 15.0 mph 20.7 mph N/A   Overcast
11:51 AM 51.8 °F - 48.2 °F 88% 29.76 in 10.0 mi South 13.8 mph 23.0 mph N/A   Overcast
11:52 AM 51.8 °F - 48.2 °F 88% 29.77 in 10.0 mi SSW 11.5 mph 23.0 mph N/A   Overcast
11:57 AM 53.6 °F - 42.8 °F 67% 29.77 in 10.0 mi Variable 6.9 mph 23.0 mph N/A   Overcast
11:58 AM 52.2 °F - 41.0 °F 66% 29.76 in 10.0 mi Variable 5.8 mph 23.0 mph N/A   Overcast
12:03 PM 55.4 °F - 41.0 °F 58% 29.77 in 10.0 mi SE 10.4 mph - N/A   Overcast
12:18 PM 57.2 °F - 39.2 °F 51% 29.76 in 10.0 mi SSW 15.0 mph 20.7 mph N/A   Overcast
12:38 PM 55.4 °F - 39.2 °F 54% 29.75 in 10.0 mi SSW 9.2 mph 18.4 mph N/A   Overcast
12:58 PM 55.9 °F - 39.2 °F 53% 29.73 in 10.0 mi SE 3.5 mph - N/A   Overcast
1:33 PM 55.4 °F - 39.2 °F 54% 29.75 in 10.0 mi Variable 5.8 mph - N/A   Overcast
1:58 PM 55.9 °F - 39.0 °F 53% 29.75 in 10.0 mi SW 6.9 mph - N/A   Overcast
2:08 PM 55.4 °F - 39.2 °F 54% 29.76 in 10.0 mi SW 5.8 mph - N/A   Overcast
2:23 PM 55.4 °F - 39.2 °F 54% 29.76 in 10.0 mi SSW 3.5 mph - N/A   Mostly Cloudy
2:48 PM 55.4 °F - 39.2 °F 54% 29.76 in 10.0 mi South 11.5 mph - N/A   Mostly Cloudy
2:58 PM 55.9 °F - 38.8 °F 53% 29.75 in 10.0 mi South 12.7 mph - N/A   Mostly Cloudy
3:58 PM 55.2 °F - 39.6 °F 56% 29.73 in 10.0 mi South 11.5 mph - N/A   Scattered Clouds
4:58 PM 53.4 °F - 39.6 °F 59% 29.76 in 10.0 mi South 12.7 mph - N/A   Overcast
5:58 PM 52.9 °F - 39.7 °F 61% 29.79 in 10.0 mi SSW 10.4 mph - 0.00 in Rain Light Rain
6:03 PM 51.8 °F - 41.0 °F 67% 29.80 in 10.0 mi SSW 12.7 mph - N/A Rain Light Rain
6:08 PM 51.8 °F - 41.0 °F 67% 29.80 in 10.0 mi SSW 10.4 mph - N/A   Light Drizzle
6:13 PM 51.8 °F - 41.0 °F 67% 29.81 in 10.0 mi SSW 8.1 mph - N/A Rain Light Rain
6:33 PM 48.2 °F - 48.2 °F 100% 29.81 in 9.0 mi South 9.2 mph - N/A Rain Light Rain
6:38 PM 48.2 °F - 48.2 °F 100% 29.81 in 9.0 mi South 9.2 mph - N/A Rain Light Rain
6:43 PM 48.2 °F - 48.2 °F 100% 29.81 in 10.0 mi South 8.1 mph - N/A Rain Light Rain
6:48 PM 46.4 °F 42.4 °F 46.4 °F 100% 29.81 in 10.0 mi SSE 8.1 mph - N/A Rain Light Rain
6:53 PM 46.4 °F 42.4 °F 46.4 °F 100% 29.81 in 10.0 mi SSE 8.1 mph - N/A Rain Light Rain
6:58 PM 46.6 °F - 46.6 °F 100% 29.81 in 10.0 mi SE 8.1 mph - 0.02 in Rain Light Rain
7:13 PM 46.4 °F 41.5 °F 46.4 °F 100% 29.82 in 9.0 mi SE 10.4 mph - N/A Rain Light Rain
7:18 PM 46.4 °F 41.5 °F 46.4 °F 100% 29.81 in 10.0 mi SE 10.4 mph - N/A Rain Light Rain
7:48 PM 44.6 °F 38.8 °F 44.6 °F 100% 29.81 in 10.0 mi SE 11.5 mph - N/A   Overcast
7:58 PM 45.0 °F 39.3 °F 45.0 °F 100% 29.81 in 10.0 mi SE 11.5 mph - 0.03 in   Overcast
8:13 PM 44.6 °F 38.4 °F 44.6 °F 100% 29.82 in 10.0 mi SSE 12.7 mph - N/A   Mostly Cloudy
8:43 PM 44.6 °F 39.7 °F 44.6 °F 100% 29.82 in 10.0 mi ESE 9.2 mph - N/A   Scattered Clouds
8:58 PM 43.7 °F 37.7 °F 43.7 °F 100% 29.83 in 10.0 mi SE 11.5 mph - N/A   Partly Cloudy
9:58 PM 43.0 °F 38.2 °F 43.0 °F 100% 29.85 in 10.0 mi ESE 8.1 mph - N/A   Clear
10:58 PM 41.9 °F 35.4 °F 41.9 °F 100% 29.85 in 10.0 mi East 11.5 mph - N/A   Clear
11:58 PM 45.5 °F 41.3 °F 45.5 °F 100% 29.86 in 10.0 mi East 8.1 mph - N/A   Clear